Location: B�rgermoos
(47.6500°N, 9.0667°E)
Time: 08:58:38
(UTC+00:00)

CREW DRAGON DEMO-1 DEB - Pass Details

Date: 18 September 2020
Orbit: 361 x 363 km, 51.6° (Epoch: 27 October)

Event Time Altitude Azimuth Distance (km) Brightness Sun altitude
Rises 18:39:36 0° 281° (W) 2,196 8.7 -12.5°
Reaches altitude 10° 18:41:43 10° 290° (WNW) 1,350 7.1 -12.9°
Maximum altitude 18:44:32 36° 359° (N) 600 4.0 -13.3°
Enters shadow 18:46:20 18° 58° (ENE) 973 4.5 -13.6°
